Location: ??
(35.5052°N, 139.7262°E)
Time: 02:30:30
(UTC+00:00)

X-37B - Pass Details

Date: 20 June 2021
Orbit: 383 x 392 km, 45.0° (Epoch: 01 July)

Event Time Altitude Azimuth Distance (km) Brightness Sun altitude
Exits shadow 17:23:56 - 308° (NW) 2,099 4.3 -19.8°
Reaches altitude 10° 17:25:48 10° 320° (NW) 1,405 3.5 -19.6°
Maximum altitude 17:28:31 26° 19° (NNE) 804 2.9 -19.2°
Drops below altitude 10° 17:31:15 10° 79° (E) 1,405 4.1 -18.9°
Sets 17:33:31 0° 93° (E) 2,259 5.0 -18.5°
